Terminal Aerodrome Forecast
Issued by NWS

Home | Current Version | Previous Version | Text Only | Print | Product List | Glossary On
Versions: 1 2 3 4 5 6 7 8 9 10 11 12 13 14 15 16 17 18 19 20 21 22 23 24 25 26 27 28 29 30 31 32 33 34 35 36 37 38 39 40 41 42 43 44 45 46 47
000
FTUS45 KBOU 272335
TAFAPA
TAF
KAPA 272335Z 2800/2824 02009KT P6SM FEW070 SCT120
     FM280300 34007KT P6SM SCT050 BKN080
     FM280500 24007KT P6SM SCT080 BKN150
     FM281600 35010KT P6SM FEW050 SCT090 BKN150
     FM282000 35014KT P6SM SCT060 BKN100
      TEMPO 2820/2824 VRB15G30KT 5SM -TSRA BKN050CB=

USA.gov is the U.S. government's official web portal to all federal, state and local government web resources and services.